When you browse on this site, cookies collect data to enhance your experience and personalize the content and advertising you see.
Visit our Privacy Policy to learn more. By continuing to use the site, you agree to this use of cookies and data.
  • Em Portugal
  • Lista de países
  • Para 7 dias
  • Temperatura da água
  • Mapas de satélite
  • Mapa do tempo
  • Widgets de tempo
  • user-avatar
    Iniciar Sessão

    Previsão horária em Dinagepoor

    Hoje, 15 Dezembro, Sábado

    Tempo Temperatura Precipitação Vento Pressão Humidade
    00:00 +20°C° 0 mm 2 m/s 761 mmHg 43%
    01:00 +20°C° 0 mm 2 m/s 761 mmHg 44%
    02:00 +19°C° 0 mm 2 m/s 760 mmHg 45%
    03:00 +19°C° 0 mm 2 m/s 760 mmHg 46%
    04:00 +18°C° 0 mm 2 m/s 760 mmHg 46%
    05:00 +18°C° 0 mm 2 m/s 760 mmHg 46%
    06:00 +17°C° 0 mm 2 m/s 760 mmHg 43%
    07:00 +19°C° 0 mm 2 m/s 760 mmHg 41%
    08:00 +20°C° 0 mm 2 m/s 761 mmHg 38%
    09:00 +21°C° 0 mm 3 m/s 761 mmHg 35%
    10:00 +24°C° 0 mm 3 m/s 761 mmHg 32%
    11:00 +26°C° 0 mm 3 m/s 761 mmHg 28%
    12:00 +27°C° 0 mm 3 m/s 761 mmHg 24%
    13:00 +28°C° 0 mm 3 m/s 760 mmHg 24%
    14:00 +28°C° 0 mm 2 m/s 760 mmHg 24%
    15:00 +29°C° 0 mm 2 m/s 759 mmHg 23%
    16:00 +27°C° 0 mm 2 m/s 759 mmHg 26%
    17:00 +26°C° 0 mm 1 m/s 760 mmHg 29%
    18:00 +24°C° 0 mm 1 m/s 760 mmHg 32%
    19:00 +23°C° 0 mm 1 m/s 760 mmHg 33%
    20:00 +23°C° 0 mm 1 m/s 761 mmHg 34%
    21:00 +22°C° 0 mm 1 m/s 761 mmHg 35%
    22:00 +22°C° 0 mm 1 m/s 762 mmHg 37%
    23:00 +21°C° 0 mm 1 m/s 762 mmHg 38%

    Amanhã, 16 Dezembro, Domingo

    Tempo Temperatura Precipitação Vento Pressão Humidade
    00:00 +20°C° 0 mm 2 m/s 762 mmHg 39%
    01:00 +21°C° 0 mm 1 m/s 762 mmHg 41%
    02:00 +20°C° 0 mm 1 m/s 762 mmHg 43%
    03:00 +20°C° 0 mm 1 m/s 762 mmHg 45%
    04:00 +19°C° 0 mm 2 m/s 761 mmHg 47%
    05:00 +18°C° 0 mm 2 m/s 761 mmHg 49%
    06:00 +18°C° 0 mm 2 m/s 761 mmHg 51%
    07:00 +19°C° 0 mm 2 m/s 762 mmHg 50%
    08:00 +20°C° 0 mm 2 m/s 762 mmHg 50%
    09:00 +21°C° 0 mm 2 m/s 763 mmHg 49%
    10:00 +22°C° 0 mm 3 m/s 762 mmHg 47%
    11:00 +24°C° 0 mm 3 m/s 762 mmHg 45%
    12:00 +25°C° 0 mm 3 m/s 762 mmHg 43%
    13:00 +25°C° 0 mm 2 m/s 762 mmHg 43%
    14:00 +25°C° 0 mm 2 m/s 761 mmHg 43%
    15:00 +25°C° 0 mm 1 m/s 760 mmHg 43%
    16:00 +24°C° 0 mm 1 m/s 760 mmHg 45%
    17:00 +24°C° 0 mm 1 m/s 761 mmHg 48%
    18:00 +23°C° 0 mm 1 m/s 761 mmHg 50%
    19:00 +23°C° 0 mm 1 m/s 761 mmHg 51%
    20:00 +22°C° 0 mm 1 m/s 761 mmHg 51%
    21:00 +22°C° 0 mm 1 m/s 761 mmHg 52%
    22:00 +22°C° 0 mm 1 m/s 762 mmHg 53%
    23:00 +22°C° 0 mm 1 m/s 762 mmHg 53%

    Depois de amanhã, 17 Dezembro, Segunda-feira

    Tempo Temperatura Precipitação Vento Pressão Humidade
    00:00 +22°C° 0 mm 1 m/s 762 mmHg 54%
    01:00 +22°C° 0 mm 1 m/s 762 mmHg 55%
    02:00 +21°C° 0 mm 1 m/s 762 mmHg 55%
    03:00 +21°C° 0 mm 1 m/s 762 mmHg 56%
    04:00 +21°C° 0 mm 1 m/s 761 mmHg 56%
    05:00 +21°C° 0 mm 1 m/s 761 mmHg 56%
    06:00 +21°C° 0 mm 1 m/s 761 mmHg 56%
    07:00 +21°C° 0 mm 1 m/s 762 mmHg 55%
    08:00 +22°C° 0 mm 1 m/s 762 mmHg 54%
    09:00 +22°C° 0 mm 1 m/s 763 mmHg 53%
    10:00 +22°C° 0 mm 1 m/s 762 mmHg 53%
    11:00 +23°C° 0 mm 1 m/s 762 mmHg 52%
    12:00 +23°C° 0 mm 1 m/s 762 mmHg 52%
    13:00 +23°C° 0 mm 2 m/s 761 mmHg 52%
    14:00 +21°C° 0 mm 2 m/s 761 mmHg 53%
    15:00 +21°C° 0 mm 2 m/s 760 mmHg 54%
    16:00 +21°C° 0 mm 2 m/s 760 mmHg 54%
    17:00 +21°C° 0 mm 2 m/s 760 mmHg 54%
    18:00 +21°C° 0 mm 2 m/s 760 mmHg 54%
    19:00 +20°C° 0.2 mm 2 m/s 761 mmHg 56%
    20:00 +20°C° 0.2 mm 2 m/s 761 mmHg 58%
    21:00 +20°C° 0.2 mm 2 m/s 762 mmHg 60%
    22:00 +19°C° 0.4 mm 2 m/s 761 mmHg 61%
    23:00 +19°C° 0.4 mm 2 m/s 761 mmHg 63%

    18 Dezembro, Terça-feira

    Tempo Temperatura Precipitação Vento Pressão Humidade
    00:00 +19°C° 0.4 mm 3 m/s 761 mmHg 64%
    01:00 +19°C° 0.4 mm 2 m/s 761 mmHg 66%
    02:00 +18°C° 0.4 mm 2 m/s 760 mmHg 67%
    03:00 +18°C° 0.4 mm 2 m/s 760 mmHg 69%
    04:00 +18°C° 0.2 mm 3 m/s 760 mmHg 70%
    05:00 +18°C° 0.2 mm 3 m/s 760 mmHg 72%
    06:00 +17°C° 0.2 mm 4 m/s 760 mmHg 73%
    07:00 +18°C° 0.2 mm 4 m/s 760 mmHg 74%
    08:00 +18°C° 0.2 mm 4 m/s 761 mmHg 75%
    09:00 +18°C° 0.2 mm 4 m/s 762 mmHg 76%
    10:00 +18°C° 0.2 mm 4 m/s 761 mmHg 76%
    11:00 +18°C° 0.2 mm 4 m/s 761 mmHg 77%
    12:00 +18°C° 0.2 mm 4 m/s 761 mmHg 77%
    13:00 +18°C° 1 mm 3 m/s 760 mmHg 79%
    14:00 +17°C° 1 mm 3 m/s 759 mmHg 81%
    15:00 +17°C° 1 mm 3 m/s 759 mmHg 83%
    16:00 +17°C° 0.3 mm 2 m/s 759 mmHg 83%
    17:00 +17°C° 0.3 mm 2 m/s 759 mmHg 83%
    18:00 +17°C° 0.3 mm 2 m/s 759 mmHg 84%
    19:00 +17°C° 0 mm 2 m/s 759 mmHg 84%
    20:00 +17°C° 0 mm 2 m/s 759 mmHg 84%
    21:00 +17°C° 0 mm 2 m/s 760 mmHg 84%
    22:00 +17°C° 0 mm 2 m/s 760 mmHg 85%
    23:00 +16°C° 0 mm 1 m/s 760 mmHg 86%

    19 Dezembro, Quarta-feira

    Tempo Temperatura Precipitação Vento Pressão Humidade
    00:00 +16°C° 0 mm 1 m/s 759 mmHg 86%
    01:00 +15°C° 0 mm 1 m/s 759 mmHg 87%
    02:00 +15°C° 0 mm 1 m/s 758 mmHg 87%
    03:00 +15°C° 0 mm 1 m/s 758 mmHg 87%
    04:00 +14°C° 0 mm 1 m/s 758 mmHg 87%
    05:00 +14°C° 0 mm 1 m/s 758 mmHg 87%
    06:00 +14°C° 0 mm 1 m/s 758 mmHg 87%
    07:00 +15°C° 0 mm 2 m/s 759 mmHg 83%
    08:00 +16°C° 0 mm 2 m/s 760 mmHg 78%
    09:00 +17°C° 0 mm 2 m/s 761 mmHg 73%
    10:00 +19°C° 0 mm 2 m/s 760 mmHg 65%
    11:00 +21°C° 0 mm 3 m/s 760 mmHg 57%
    12:00 +22°C° 0 mm 3 m/s 760 mmHg 49%
    13:00 +24°C° 0 mm 3 m/s 759 mmHg 45%
    14:00 +25°C° 0 mm 3 m/s 758 mmHg 40%
    15:00 +25°C° 0 mm 3 m/s 758 mmHg 36%
    16:00 +24°C° 0 mm 3 m/s 758 mmHg 39%
    17:00 +23°C° 0 mm 2 m/s 758 mmHg 42%
    18:00 +21°C° 0 mm 1 m/s 758 mmHg 46%
    19:00 +21°C° 0 mm 1 m/s 759 mmHg 47%
    20:00 +20°C° 0 mm 1 m/s 759 mmHg 48%
    21:00 +19°C° 0 mm 1 m/s 760 mmHg 49%
    22:00 +19°C° 0 mm 1 m/s 760 mmHg 50%
    23:00 +19°C° 0 mm 1 m/s 760 mmHg 51%

    20 Dezembro, Quinta-feira

    Tempo Temperatura Precipitação Vento Pressão Humidade
    00:00 +18°C° 0 mm 1 m/s 760 mmHg 52%
    01:00 +18°C° 0 mm 1 m/s 759 mmHg 53%
    02:00 +16°C° 0 mm 1 m/s 759 mmHg 54%
    03:00 +16°C° 0 mm 2 m/s 759 mmHg 55%
    04:00 +15°C° 0 mm 2 m/s 759 mmHg 56%
    05:00 +15°C° 0 mm 2 m/s 759 mmHg 58%
    06:00 +15°C° 0 mm 2 m/s 759 mmHg 60%
    07:00 +16°C° 0 mm 2 m/s 760 mmHg 59%
    08:00 +17°C° 0 mm 2 m/s 760 mmHg 57%
    09:00 +19°C° 0 mm 2 m/s 761 mmHg 56%
    10:00 +20°C° 0 mm 2 m/s 760 mmHg 53%
    11:00 +23°C° 0 mm 2 m/s 760 mmHg 49%
    12:00 +24°C° 0 mm 2 m/s 759 mmHg 46%
    13:00 +25°C° 0 mm 2 m/s 759 mmHg 44%
    14:00 +25°C° 0 mm 2 m/s 758 mmHg 42%
    15:00 +26°C° 0 mm 1 m/s 757 mmHg 40%
    16:00 +25°C° 0 mm 2 m/s 757 mmHg 43%
    17:00 +24°C° 0 mm 2 m/s 757 mmHg 45%
    18:00 +21°C° 0 mm 2 m/s 757 mmHg 47%
    19:00 +21°C° 0 mm 2 m/s 757 mmHg 47%
    20:00 +20°C° 0 mm 2 m/s 758 mmHg 46%
    21:00 +19°C° 0 mm 2 m/s 758 mmHg 45%
    22:00 +19°C° 0 mm 2 m/s 758 mmHg 44%
    23:00 +18°C° 0 mm 2 m/s 758 mmHg 43%
    Mostrar mais